Location: Unspecified
(43.4680°N, 87.1740°E)
Time: 21:25:24
(UTC+00:00)

ERBS - Pass Details

Date: 17 April 2021
Orbit: 404 x 414 km, 57.0° (Epoch: 11 May)

Event Time Altitude Azimuth Distance (km) Brightness Sun altitude
Exits shadow 21:04:49 19° 337° (NNW) 1,058 4.4 -22.8°
Drops below altitude 10° 21:07:08 10° 21° (NNE) 1,490 5.9 -22.5°
Sets 21:09:39 0° 40° (NE) 2,357 7.5 -22.2°
